Location: Wildcat Hills Observatory
(41.6350°N, 103.6812°W)
Time: 19:29:28
(UTC-07:00)

SPOT 1/Viking Rocket - Pass Details

Date: 23 June 2018
Orbit: 778 x 794 km, 98.6° (Epoch: 19 November)

Event Time Altitude Azimuth Distance (km) Brightness Sun altitude
Exits shadow 22:00:42 19° 141° (SE) 1,781 4.7 -13.2°
Maximum altitude 22:04:13 53° 71° (ENE) 958 3.9 -13.6°
Drops below altitude 10° 22:09:13 10° 356° (N) 2,340 6.9 -14.2°
Sets 22:11:35 0° 352° (N) 3,274 7.8 -14.5°
